Wind_Speed
36 37 42 47 50 52 49 45 42 37 30 25 24 25 27 28 29 29 26 19 15 23 32 33 31 28 28 30 29 26 22 20 21 22 24 25 25 24 22 20 19 19 19 20 21 23 24 24 24 26 28 28 27 27 27 27 26 26 26 26 25 25 26 27 28 28 27 26 25 25 24 22 21 20 19 19 18 16 15 14 13 12 11 10 9 7
37 41 47 50 50 48 45 43 38 36 33 26 21 21 25 29 32 29 26 20 16 22 31 32 32 31 30 32 32 30 27 25 24 24 25 26 26 25 22 20 18 17 19 21 22 24 26 26 26 26 28 29 29 28 28 27 27 27 27 26 25 26 27 27 27 27 26 25 24 23 22 21 21 20 19 18 17 16 16 15 14 13 12 11 9 7
38 46 49 46 46 44 42 41 38 35 35 32 26 23 25 31 32 29 27 23 18 19 25 29 32 33 32 33 34 32 31 30 26 23 24 25 27 27 24 20 18 18 20 21 23 25 27 28 27 27 28 29 29 28 28 28 28 28 28 27 27 27 27 26 27 26 25 24 23 22 21 20 20 20 19 19 19 19 18 17 15 14 12 11 10 8
41 47 49 45 44 43 42 40 38 35 34 35 33 29 31 32 29 29 29 26 22 20 21 23 28 32 33 35 37 35 32 31 27 23 23 24 27 26 22 20 19 19 19 20 22 26 27 28 28 29 29 29 28 29 29 29 29 28 28 28 27 27 27 26 26 26 25 24 23 23 22 22 22 21 21 22 22 22 20 18 16 14 13 11 10 8
44 43 41 44 45 42 42 41 37 35 35 37 37 36 37 34 31 34 30 23 23 23 19 18 21 29 36 38 39 38 34 32 29 26 26 27 28 26 23 22 22 20 18 18 19 22 26 27 28 29 29 29 28 29 30 29 28 27 27 27 27 27 27 26 26 26 26 26 25 25 25 26 26 26 26 26 25 24 22 19 16 14 13 12 11 10
45 38 28 36 47 44 41 41 40 37 36 38 41 42 40 36 36 35 28 19 19 21 22 17 13 19 33 41 42 40 38 37 32 29 30 29 30 31 29 26 25 24 21 19 17 18 20 24 26 28 29 29 29 29 29 29 27 26 26 26 27 27 27 26 26 26 27 27 27 27 27 28 29 29 28 27 25 23 20 18 16 15 14 13 12 11
44 40 23 20 36 45 41 40 42 39 34 39 46 47 41 38 37 33 26 18 15 18 21 18 12 12 25 39 44 43 41 40 37 33 32 31 32 33 32 29 28 27 25 22 20 20 20 22 24 25 27 28 29 28 28 28 27 26 26 27 27 27 27 26 26 27 28 28 28 27 27 27 27 27 26 24 23 22 21 19 18 17 16 15 13 12
41 43 34 18 20 38 44 44 44 39 37 44 49 46 40 39 40 36 28 21 20 23 23 21 18 14 22 34 41 45 45 43 40 37 35 34 34 34 32 30 30 29 26 23 22 22 21 22 22 21 22 24 26 27 28 29 28 27 27 26 27 27 27 26 26 27 28 28 28 27 27 28 27 25 24 23 23 23 22 22 20 18 17 16 15 14
39 42 44 32 22 31 42 47 46 40 41 47 44 40 40 40 39 37 29 26 28 26 26 30 26 14 17 30 37 44 49 46 43 41 38 36 35 35 34 31 30 29 27 24 23 22 21 20 20 20 19 20 23 27 28 28 27 27 27 27 27 27 27 27 26 27 27 27 26 27 27 27 27 25 24 24 24 24 23 23 21 20 18 18 17 16
38 40 41 38 34 33 32 37 43 42 42 42 36 33 37 39 39 34 26 27 28 20 25 37 31 13 12 26 35 46 51 50 47 45 40 36 35 34 34 32 30 29 28 27 25 24 21 18 16 17 18 19 22 25 27 28 28 28 28 28 28 28 27 27 27 27 27 27 26 27 27 27 26 26 26 26 26 25 24 24 22 21 20 19 18 17
35 31 31 37 42 38 30 26 34 40 41 37 30 25 27 31 35 31 25 27 22 14 26 40 36 19 11 20 31 42 49 49 47 48 43 38 37 35 33 33 33 31 29 28 27 26 24 20 16 17 19 20 21 24 27 28 29 30 30 29 29 28 28 28 27 27 28 28 27 27 26 26 26 26 26 27 27 26 25 24 23 22 21 20 19 19
37 27 25 31 34 36 35 31 29 32 37 36 29 24 21 21 24 23 21 24 14 9 26 40 37 26 17 22 29 32 41 45 44 44 43 39 38 36 34 34 34 32 29 28 28 28 27 25 22 20 20 22 23 24 27 30 31 32 31 30 30 29 29 29 29 28 29 29 28 26 26 25 26 27 27 26 26 26 24 23 22 21 22 21 20 20
39 37 32 27 24 27 33 37 34 30 34 38 33 29 21 12 12 12 9 12 8 9 27 36 31 26 27 35 36 30 33 40 43 40 35 33 32 33 35 34 34 34 32 31 30 30 30 27 25 23 21 24 26 26 27 30 33 33 33 32 31 31 30 30 30 30 30 30 28 26 25 25 26 27 27 26 26 25 23 22 21 21 21 21 20 20
32 35 37 33 28 26 30 38 38 33 35 39 38 34 24 9 4 8 5 4 5 9 26 36 28 21 27 37 38 35 33 34 39 40 33 29 29 28 31 33 34 34 34 34 31 31 32 28 26 25 23 25 27 27 27 30 34 35 34 34 32 31 31 31 32 32 31 30 28 27 25 25 25 26 27 26 25 24 22 21 20 19 19 19 19 18
23 26 36 42 37 32 34 37 38 36 35 38 41 39 33 24 13 7 4 3 5 7 19 31 21 11 19 32 35 35 35 32 34 38 37 33 30 29 30 32 34 35 34 35 34 33 33 30 27 26 24 25 28 28 28 30 33 35 35 35 33 32 32 32 33 33 32 31 29 28 27 26 25 25 26 26 25 24 22 21 20 19 19 18 17 17
16 26 36 39 38 37 35 35 36 36 34 34 40 40 40 42 30 12 5 8 9 7 13 24 18 8 15 29 32 30 31 33 32 35 42 41 36 36 39 38 36 35 35 35 35 35 34 33 31 29 25 25 27 28 28 30 32 34 35 35 34 33 32 33 33 33 32 31 30 30 28 27 26 25 26 25 25 23 22 20 20 19 19 18 17 17
8 23 33 30 35 41 39 37 36 38 35 32 38 44 46 46 36 19 11 13 12 7 12 22 21 16 16 23 29 30 29 31 31 32 40 44 41 42 44 42 40 38 36 35 34 34 36 36 33 31 27 25 26 28 28 28 29 31 33 34 34 34 33 34 33 33 32 31 31 31 30 29 28 27 26 25 24 23 22 21 20 19 19 18 18 19
17 20 29 29 31 38 39 38 36 38 38 33 37 46 43 35 34 29 15 9 9 5 9 18 20 20 19 18 26 32 31 31 31 31 34 39 42 43 42 41 40 40 38 36 33 33 36 38 35 31 28 25 25 26 27 27 27 28 30 33 34 34 34 34 34 33 32 32 31 31 31 30 29 27 26 25 24 24 23 22 21 20 19 19 19 20
19 19 23 29 29 33 38 39 37 36 38 37 36 39 35 27 28 31 19 8 7 4 4 10 15 21 27 25 26 31 35 34 31 30 32 36 39 41 40 39 38 39 40 39 36 35 36 38 38 34 29 25 24 25 26 27 28 28 28 30 33 34 34 33 33 33 32 32 32 31 31 31 30 28 26 25 25 25 25 23 22 21 20 20 19 20
12 10 14 24 26 29 35 39 40 39 38 41 39 33 34 34 31 31 25 15 8 4 3 5 7 16 28 30 27 30 35 36 34 33 33 35 38 38 36 36 36 37 38 39 38 37 37 37 38 37 31 26 24 24 25 28 30 30 28 29 31 32 33 34 34 34 33 33 32 31 31 31 31 30 28 26 26 25 25 24 23 23 21 21 20 20
10 10 13 20 23 23 28 34 42 44 39 42 44 36 35 38 34 29 26 23 15 4 3 4 5 14 24 27 26 26 29 33 36 36 35 35 35 35 33 30 31 32 33 34 35 35 35 36 38 38 33 27 25 25 25 27 30 32 31 29 29 31 33 34 35 35 34 34 33 32 32 31 31 30 29 28 27 26 25 24 24 23 22 22 21 20
14 15 18 21 20 22 29 34 38 41 37 38 42 41 39 36 30 21 14 23 27 14 5 4 5 16 24 24 25 25 25 28 32 34 36 36 36 35 33 29 28 28 29 30 32 33 34 36 37 38 35 30 28 28 26 25 28 31 33 32 31 31 32 33 34 35 34 34 34 33 32 31 31 30 30 29 28 27 26 26 25 25 24 23 22 20
15 15 17 23 26 27 37 37 32 33 35 35 33 36 41 38 34 25 14 19 28 22 18 11 8 21 29 25 26 28 28 31 33 35 37 37 37 38 37 35 31 29 27 28 30 32 33 35 36 37 36 32 29 28 26 25 27 29 31 32 33 33 32 32 32 34 34 35 35 34 33 32 31 31 31 30 29 28 27 26 26 25 25 24 22 21
10 11 14 20 26 30 42 41 33 27 25 26 27 30 37 40 41 38 30 26 24 23 25 14 8 27 35 24 24 27 27 30 32 36 40 41 42 41 40 40 37 32 29 27 29 30 32 35 37 38 38 34 30 29 27 25 25 27 29 30 33 34 33 32 31 32 34 35 35 34 34 34 33 33 32 31 30 28 27 27 26 26 25 24 23 22
9 8 13 16 13 17 29 32 29 25 18 18 21 24 31 40 43 40 35 31 24 26 32 17 10 33 39 26 24 24 21 21 22 26 34 39 44 46 46 45 41 35 31 29 30 31 32 34 37 39 39 36 32 30 28 25 24 26 27 28 29 32 32 32 31 32 33 34 34 35 35 35 34 34 32 31 30 29 28 27 27 26 25 24 24 22
12 12 11 10 5 7 12 11 11 12 12 16 20 21 27 37 42 40 34 26 22 26 34 27 24 41 42 30 28 25 20 20 18 21 27 31 37 43 46 46 42 37 34 32 32 34 33 32 33 36 39 37 33 31 29 26 25 26 27 27 27 29 30 31 31 32 32 33 34 35 35 35 35 34 32 31 30 30 29 28 28 27 26 25 24 23
15 16 15 15 16 18 21 15 8 12 16 19 21 22 28 32 37 41 36 30 27 26 31 36 39 43 43 38 31 25 23 24 22 24 25 27 31 36 40 41 39 36 34 33 32 34 34 32 30 33 38 38 33 31 29 27 25 26 28 27 26 27 28 30 30 30 31 31 32 34 34 35 35 34 33 32 31 30 30 29 28 28 26 25 25 24
16 18 17 17 20 22 27 26 20 20 22 21 18 19 26 28 28 36 41 41 36 26 25 35 40 39 43 43 33 26 26 28 28 23 21 27 29 32 35 36 35 34 34 33 31 30 31 30 28 31 36 37 33 31 30 27 25 27 28 28 26 26 27 28 29 30 30 30 31 32 32 33 33 33 33 33 32 32 31 30 30 29 27 27 26 25
16 20 18 15 20 23 25 25 24 22 21 19 17 16 20 23 23 29 41 47 42 33 31 35 36 37 42 40 33 29 29 32 33 21 22 26 27 31 33 34 34 32 33 33 30 27 28 28 28 30 33 35 33 31 30 28 26 27 28 28 27 26 27 27 28 28 29 30 30 30 30 30 31 32 32 33 33 33 32 31 31 30 29 28 27 26
16 19 17 14 23 26 20 16 17 18 18 17 16 15 17 22 25 26 34 45 46 42 41 38 36 38 39 35 33 31 30 32 31 19 26 26 26 30 32 35 36 33 33 34 30 28 28 28 28 29 31 32 32 31 30 28 26 27 28 28 27 27 27 27 27 26 26 26 26 26 27 28 29 30 31 31 32 31 31 32 32 31 30 30 28 27
15 17 15 15 25 21 10 11 13 16 16 14 12 13 16 22 28 26 29 41 46 44 42 39 38 39 36 32 31 29 26 28 25 18 28 25 24 29 30 32 35 33 32 33 30 29 29 29 29 30 31 31 32 31 30 28 25 25 26 27 27 27 28 28 28 27 26 24 22 22 23 24 26 27 28 29 29 30 30 30 31 31 31 30 30 29
17 19 15 15 23 13 6 8 15 19 16 9 7 7 12 20 25 26 29 37 44 44 42 40 40 39 34 31 30 28 25 25 21 20 27 25 24 26 27 28 30 30 31 33 32 31 31 30 30 31 31 30 30 30 28 26 25 24 26 27 27 27 28 29 29 29 27 25 23 23 23 22 23 24 25 26 27 27 28 28 29 29 30 30 30 29
17 19 15 13 16 8 4 8 11 14 12 5 5 5 9 14 19 26 31 36 42 43 42 40 39 37 34 31 31 29 25 23 20 22 28 26 24 24 24 26 27 28 31 33 32 32 31 30 30 29 29 28 28 27 26 24 22 23 25 27 28 28 28 28 29 29 28 26 25 26 25 24 24 24 23 24 25 25 27 27 28 27 27 28 28 28
18 18 15 11 10 10 10 10 4 7 4 3 6 11 19 20 19 26 27 29 37 42 41 38 33 31 29 29 29 28 25 22 21 24 27 26 24 23 22 23 26 28 30 31 32 32 31 30 29 28 27 26 25 24 24 22 19 18 20 22 25 28 29 28 29 28 27 27 27 28 27 27 27 26 25 24 24 25 26 27 27 26 26 26 27 27
17 16 12 9 10 13 15 9 4 5 6 8 4 8 21 26 23 23 22 25 33 38 39 33 27 25 25 25 26 27 26 24 22 25 27 26 25 25 22 22 26 30 30 31 33 34 32 30 29 27 26 25 24 24 23 20 18 17 16 17 20 24 26 27 28 28 27 27 28 29 29 28 28 27 26 25 25 25 25 25 25 26 25 25 25 25
15 12 9 8 8 10 13 9 2 8 10 9 4 6 17 25 26 24 18 20 28 31 31 28 24 23 23 23 25 27 29 28 24 25 29 29 28 26 24 24 27 31 32 32 34 36 34 31 29 27 25 25 25 24 21 19 17 17 16 17 19 21 23 26 28 28 27 27 28 28 28 29 29 29 28 27 27 26 25 24 24 24 25 25 24 24
13 8 5 5 3 4 11 12 6 9 8 6 7 7 9 12 21 24 17 14 22 27 27 25 25 25 26 26 27 29 30 30 27 25 28 31 30 27 25 26 29 31 32 32 34 37 35 32 30 28 26 26 25 23 20 18 17 18 18 19 20 20 21 24 27 27 27 26 26 26 27 28 29 30 30 29 29 28 27 25 24 23 23 24 24 24
12 8 2 3 3 6 11 11 4 4 3 6 10 7 3 5 20 27 20 15 20 29 30 29 30 31 31 31 31 32 31 29 28 27 29 31 30 27 27 28 31 32 32 32 34 35 34 32 31 29 27 26 26 23 21 20 20 22 22 21 21 21 21 22 24 25 25 24 23 23 24 26 27 29 30 31 31 31 30 28 26 24 24 24 24 24
11 7 2 6 11 13 11 7 3 2 3 6 7 3 3 12 24 29 22 16 17 26 31 33 34 34 35 35 34 35 33 30 28 28 29 30 29 27 29 31 33 33 32 32 31 30 31 32 31 29 28 27 26 25 25 25 24 24 23 23 23 23 24 24 23 24 24 23 21 20 20 21 23 25 28 30 32 32 32 31 30 28 26 25 24 24
9 6 4 9 14 14 11 8 5 4 6 7 7 3 8 20 25 23 14 12 14 21 28 32 34 33 34 35 36 37 36 33 30 30 29 29 28 27 29 31 34 34 33 32 30 29 31 33 32 31 29 27 27 28 29 27 24 23 23 23 24 26 27 27 26 24 24 23 22 19 17 17 18 21 24 26 28 29 30 31 32 32 31 29 27 26
9 8 6 8 10 11 11 10 5 4 8 9 8 3 17 23 17 14 10 12 17 21 23 26 31 30 28 29 33 37 37 35 34 33 31 30 28 27 28 29 31 32 32 32 31 31 33 33 32 31 30 29 30 30 28 24 21 21 21 22 24 27 29 30 29 27 26 26 25 23 20 17 17 19 21 22 23 25 27 28 29 31 33 33 32 31
7 7 3 3 5 6 7 6 4 3 7 6 6 5 23 23 15 14 13 17 21 24 25 26 28 27 27 29 34 38 38 38 37 35 32 31 30 29 29 29 29 30 30 31 32 32 33 33 32 31 30 30 30 28 25 22 19 18 17 18 20 22 25 28 29 28 27 26 25 24 23 20 18 18 20 20 21 23 25 26 27 29 31 33 35 36
6 5 6 9 6 4 3 4 4 2 7 7 4 6 19 21 16 14 18 23 24 25 28 30 30 30 32 33 36 39 40 39 38 36 35 34 32 31 31 31 31 31 31 32 33 33 33 32 31 31 29 29 27 24 22 20 18 17 16 16 15 15 17 20 21 21 21 21 20 21 20 19 18 17 18 19 21 23 25 25 26 28 29 31 33 36
11 7 7 9 8 7 8 6 3 4 9 9 5 11 19 19 15 16 21 26 26 27 29 32 33 33 35 35 35 37 38 37 37 36 36 36 35 34 33 32 32 32 33 33 34 34 33 31 31 30 28 26 25 22 21 20 18 18 17 16 16 15 15 15 16 17 18 18 18 18 18 17 16 16 15 15 17 20 24 25 27 28 29 30 31 33
12 10 6 4 5 8 9 6 3 5 7 6 4 9 13 13 14 14 18 26 29 30 31 32 32 33 34 34 33 32 32 33 34 34 36 37 37 36 35 33 33 32 33 33 33 33 33 31 30 29 27 26 25 23 22 22 21 20 20 20 20 19 19 18 18 18 19 20 20 19 19 18 17 16 15 15 14 16 18 22 26 29 30 31 31 32
10 10 7 3 4 6 7 6 3 3 4 3 2 3 6 8 9 10 16 26 32 32 32 32 30 30 30 31 31 30 29 29 29 31 33 36 36 36 35 35 34 34 34 33 33 33 33 31 29 28 27 27 26 24 23 23 22 23 23 23 24 23 23 23 23 22 22 22 22 22 22 21 20 19 18 17 17 16 16 17 20 25 29 31 32 33
7 6 6 5 3 5 3 4 4 3 2 3 4 4 3 3 4 8 16 25 29 30 32 33 32 29 28 28 28 29 28 27 27 28 30 32 33 34 34 34 34 35 35 35 34 34 33 33 31 30 29 28 27 26 25 24 24 25 26 27 27 27 27 27 27 27 26 25 25 25 24 23 23 22 21 20 19 19 18 17 17 18 22 26 30 32
7 5 5 4 2 5 3 3 4 3 3 4 2 2 2 2 2 9 16 21 25 27 28 30 32 31 29 28 28 27 27 27 27 28 29 29 30 30 31 32 33 34 34 34 34 34 34 33 33 32 31 30 29 28 27 27 27 28 29 30 30 31 31 31 31 30 29 29 28 27 26 26 25 25 24 23 22 21 21 20 19 18 18 20 23 27
10 9 8 8 7 7 6 6 6 6 7 7 5 4 4 3 1 6 12 15 18 19 20 24 30 31 29 28 29 27 26 26 26 27 28 28 28 27 27 28 30 31 33 33 32 32 32 31 30 30 28 28 27 27 27 29 30 31 32 32 33 33 34 35 34 33 32 31 30 30 29 28 27 26 25 25 24 23 23 22 22 22 21 21 21 21
14 13 12 14 13 9 7 8 10 11 12 10 8 8 6 5 4 0 5 7 8 12 13 17 23 26 25 25 25 25 25 24 23 24 25 26 26 26 25 24 25 27 29 30 30 29 29 28 27 26 24 23 23 23 24 26 28 30 32 32 33 33 33 34 34 34 34 33 33 32 31 30 28 28 28 28 27 26 25 25 24 25 25 24 23 22
19 18 17 19 18 13 9 10 12 15 15 12 10 9 9 9 10 7 3 1 1 5 7 9 13 17 18 19 20 20 21 21 20 20 21 22 23 24 24 23 23 23 24 25 26 26 25 25 24 23 21 21 21 22 23 24 26 29 31 31 31 31 32 32 32 32 33 34 35 35 34 33 32 31 31 31 30 29 28 27 26 26 27 27 27 26
Wind_Direction
196 199 201 205 207 204 202 204 211 215 210 212 224 227 226 230 228 222 220 220 236 233 221 222 229 232 230 230 235 237 236 235 228 226 225 224 224 223 223 224 222 217 209 206 205 204 207 208 202 198 197 199 200 200 200 200 198 197 199 201 200 200 200 200 202 202 200 201 203 203 201 198 196 198 199 198 203 204 200 199 199 203 209 211 206 197
200 205 208 210 208 205 205 207 214 218 214 215 223 227 230 232 227 220 217 221 233 233 225 223 228 235 236 232 234 236 235 233 227 221 219 220 222 223 226 226 223 218 210 208 206 202 204 207 206 202 199 200 201 200 200 201 200 198 198 201 200 201 203 201 202 204 201 201 204 205 203 199 198 199 198 199 203 205 204 203 204 206 210 214 212 200
205 212 214 213 210 208 209 211 216 220 220 221 223 228 230 228 229 224 217 220 231 238 234 229 229 237 241 235 234 236 237 239 235 225 218 217 218 220 222 221 218 214 209 208 205 202 203 204 206 205 202 203 203 202 202 202 201 200 199 200 200 202 203 202 202 204 201 199 202 205 204 202 201 200 199 199 201 205 207 206 205 208 209 212 215 204
207 216 218 213 211 211 211 212 217 221 224 225 226 230 228 223 228 225 217 219 231 240 243 241 237 239 239 234 233 237 240 243 243 235 226 220 217 217 217 215 215 211 208 209 206 202 202 203 204 205 205 205 204 204 204 204 203 202 201 199 200 202 204 202 201 202 201 199 201 203 203 204 204 203 203 201 201 204 207 206 205 207 209 210 213 208
210 217 219 214 213 214 213 213 217 221 224 226 226 227 226 220 218 221 222 225 233 236 237 247 248 237 232 228 229 235 236 237 242 237 228 223 218 219 220 219 218 215 216 219 215 208 205 206 207 205 205 206 205 205 205 205 205 204 202 200 200 203 204 203 200 200 200 199 200 202 202 203 203 204 204 202 201 203 205 204 203 204 208 209 212 211
216 217 219 217 214 214 216 217 216 219 224 227 225 222 222 219 213 222 234 239 248 245 232 236 249 234 229 230 231 231 227 228 233 233 229 222 216 218 221 222 221 217 219 227 233 227 216 211 211 208 206 207 206 206 206 206 205 205 204 201 201 203 206 205 201 199 200 200 200 201 203 203 202 201 202 200 198 202 204 204 204 205 207 209 211 213
219 217 214 216 217 216 217 219 218 217 223 229 225 218 219 220 218 230 242 243 255 254 238 235 252 242 225 226 230 229 227 227 227 228 229 223 217 217 218 221 222 217 216 223 231 233 227 218 214 212 209 208 207 205 206 207 206 205 205 203 202 204 206 206 202 200 201 201 201 202 204 206 205 203 200 197 196 200 203 205 208 208 208 210 211 214
220 218 214 205 217 219 216 219 219 214 220 228 225 219 223 223 221 233 244 242 246 255 253 245 252 253 224 225 229 226 226 226 224 226 227 222 219 219 218 218 220 218 217 221 224 227 227 224 222 219 214 211 208 205 205 208 207 205 204 204 204 204 206 207 204 202 201 201 201 201 204 206 206 204 200 198 198 199 201 205 209 210 209 211 212 215
221 220 217 208 211 220 219 221 219 212 218 228 228 224 227 225 225 236 246 248 250 260 264 253 251 258 238 237 231 219 220 221 222 227 226 221 220 219 219 218 217 216 216 218 221 223 222 221 222 222 219 214 210 206 205 207 209 207 204 203 204 204 205 207 206 203 202 201 201 201 204 206 206 204 201 200 201 201 202 205 208 211 212 212 213 216
225 226 223 216 216 221 223 225 222 216 219 227 231 230 231 229 233 243 249 252 254 256 259 255 252 252 251 245 225 209 213 217 222 229 228 223 221 219 219 218 217 215 214 216 219 222 222 218 217 218 219 216 212 209 206 206 208 209 206 204 203 203 204 207 206 204 202 201 201 201 203 205 205 204 202 201 202 202 204 206 208 213 216 215 214 216
228 233 232 227 225 224 225 228 226 224 224 227 229 232 236 236 239 247 250 249 252 247 248 253 253 247 254 252 229 213 216 220 224 228 229 226 223 221 220 218 219 218 215 216 216 218 221 219 218 219 218 215 212 210 206 205 207 208 208 206 204 202 202 206 207 204 202 202 202 201 201 202 203 204 203 202 202 203 205 206 209 214 218 220 217 217
227 229 230 233 235 231 230 231 231 231 228 225 225 225 232 239 240 246 243 235 235 242 246 251 253 247 239 247 242 231 227 227 226 226 226 227 226 225 223 218 219 220 218 217 215 214 216 217 218 217 215 211 209 209 206 204 206 207 207 207 204 202 201 204 206 204 203 203 202 201 200 200 201 203 205 203 203 205 206 207 211 215 220 223 222 220
226 226 225 229 237 232 230 229 228 232 228 222 220 219 219 227 234 233 226 219 220 240 246 250 253 246 241 247 248 244 238 232 230 230 228 231 234 232 228 219 217 220 220 218 216 214 214 214 216 213 209 206 206 207 205 204 206 207 206 206 204 203 201 202 205 204 203 203 202 200 200 200 200 202 204 204 205 207 208 209 211 216 221 226 228 227
224 227 226 225 229 227 224 223 220 221 223 218 214 213 209 199 213 222 211 227 231 230 242 248 252 247 247 250 246 241 241 238 235 234 232 236 243 242 236 225 219 220 222 221 218 216 214 212 215 216 210 206 204 205 206 206 207 207 207 205 204 202 201 202 204 204 203 202 201 200 199 199 201 203 204 205 207 209 210 210 209 212 218 225 231 234
220 222 222 219 221 221 221 223 221 218 220 219 214 212 214 212 210 211 194 205 206 206 238 242 241 234 239 245 242 236 236 239 240 237 233 236 243 245 243 234 224 222 224 224 220 217 216 214 216 217 213 209 207 206 206 207 208 209 208 206 203 201 200 202 204 205 203 201 200 200 199 199 201 203 204 206 209 211 212 211 208 208 213 218 224 230
232 226 223 218 219 220 220 223 223 218 217 221 216 211 217 219 215 213 228 227 209 194 229 233 227 227 243 247 244 236 233 235 241 240 233 232 236 239 240 237 232 227 225 226 224 220 218 216 216 216 215 214 211 208 208 209 211 211 210 208 205 202 201 203 204 205 204 201 200 200 200 200 201 203 204 206 208 211 213 212 209 208 210 213 217 222
294 238 219 212 218 220 220 220 219 216 213 214 212 211 217 221 217 216 235 238 222 205 224 228 230 234 241 248 242 235 233 231 235 239 234 231 233 235 237 239 238 234 229 227 227 225 222 220 219 218 217 217 215 211 211 211 213 214 212 210 207 204 203 204 204 205 204 203 202 201 201 201 203 205 205 206 207 209 212 215 214 211 210 212 214 219
337 274 218 201 211 216 218 223 223 220 217 211 211 215 217 218 221 222 225 233 219 216 231 226 226 222 218 230 233 229 230 229 229 233 233 232 234 236 239 241 242 240 235 230 227 228 227 224 223 221 219 220 219 216 215 215 215 215 215 213 210 207 205 204 204 204 204 204 203 202 202 203 205 207 207 207 207 209 211 213 216 217 216 214 215 219
340 298 227 203 208 212 212 219 224 225 224 220 220 222 213 204 213 216 216 225 215 217 262 229 221 218 216 220 223 224 226 227 226 225 226 229 233 236 239 240 242 242 240 235 229 228 228 226 225 223 221 221 221 218 216 215 213 213 214 214 213 211 209 207 206 204 204 205 205 204 204 204 206 207 209 210 210 211 211 212 214 218 219 218 218 220
356 327 244 213 206 209 209 211 216 219 222 222 226 228 219 213 214 211 212 218 211 202 242 234 223 220 219 220 222 225 227 227 226 222 221 224 229 233 235 236 239 240 240 238 233 231 231 229 226 224 223 223 221 218 215 214 212 212 212 212 213 213 212 210 208 206 205 205 205 204 205 205 206 207 208 211 213 214 213 212 214 217 219 220 220 221
358 349 284 231 204 205 208 207 212 214 214 215 218 219 217 217 216 215 218 220 218 214 187 205 249 236 226 222 222 225 226 228 228 226 223 223 226 229 230 230 231 233 236 237 235 233 234 232 228 224 223 223 222 220 218 214 213 212 212 211 212 213 214 213 211 209 207 206 205 205 206 206 207 207 208 210 213 214 214 214 214 215 217 219 219 219
345 335 305 265 237 217 206 204 209 214 213 212 215 216 215 213 208 208 218 220 221 228 220 201 261 254 242 234 231 228 223 224 225 225 226 226 226 227 227 225 221 221 226 231 232 232 232 234 231 224 220 221 221 219 217 214 212 212 213 213 213 214 216 217 215 212 209 208 207 206 206 207 207 208 209 210 212 213 214 214 213 213 215 217 217 217
334 327 311 282 261 226 204 202 205 209 211 213 215 220 220 216 210 208 210 213 214 223 241 251 275 261 252 245 245 243 234 230 228 226 227 225 224 226 228 227 222 217 219 224 229 231 231 234 233 225 220 220 218 215 212 211 210 211 213 214 214 215 217 218 218 216 213 211 209 207 207 207 207 209 210 211 212 212 213 213 212 213 215 216 217 217
325 330 326 294 265 227 208 207 206 204 212 221 221 222 222 219 217 217 220 220 212 213 228 240 271 257 250 243 244 245 240 240 238 234 232 228 226 227 229 231 229 222 218 219 225 229 231 235 235 226 219 218 217 213 210 210 210 210 211 212 214 215 216 218 219 219 217 214 211 209 208 208 208 209 211 211 212 212 212 212 213 214 215 217 219 217
310 318 334 321 287 235 216 215 217 218 222 231 229 224 224 223 221 222 222 221 219 218 219 216 246 249 245 238 236 238 237 237 238 243 241 234 230 228 228 233 234 227 220 217 220 224 228 234 236 228 220 217 216 212 209 210 210 209 209 210 212 213 214 217 219 220 220 217 215 213 211 210 209 210 211 212 213 212 212 214 215 216 216 217 219 219
284 278 302 310 282 239 233 224 229 246 246 230 222 219 220 222 221 221 217 212 215 220 217 214 233 244 245 244 239 234 233 235 248 267 259 241 231 226 225 229 231 226 219 216 218 222 225 229 233 230 222 217 216 214 212 213 212 208 206 207 209 211 213 215 217 219 221 219 218 216 214 212 211 211 212 212 213 214 214 216 217 218 218 218 219 220
263 262 267 272 263 263 273 273 268 295 282 243 224 215 212 217 221 221 216 212 214 217 216 220 232 242 249 250 241 229 228 240 265 279 260 236 226 222 220 221 221 218 214 213 215 220 224 225 228 229 223 217 217 216 215 216 214 209 205 204 206 208 211 214 216 218 220 220 220 219 217 216 214 213 213 213 214 215 216 218 219 219 219 219 220 220
258 256 253 270 277 278 288 282 264 274 279 259 245 231 214 213 220 221 218 217 218 216 217 226 231 238 249 252 244 232 232 249 274 274 237 221 221 220 217 215 215 213 210 210 210 214 220 219 219 223 220 216 216 217 216 216 215 210 206 205 206 207 210 212 215 217 220 222 223 221 219 219 218 218 217 216 216 216 217 219 220 221 221 221 222 222
257 255 250 273 289 288 291 283 264 264 274 269 266 259 234 222 220 224 222 219 220 222 226 231 231 235 247 250 244 242 247 262 278 262 210 208 217 216 214 214 212 210 210 211 206 205 210 208 207 213 215 213 214 214 214 213 211 210 207 204 205 208 211 212 214 216 218 220 221 220 219 220 221 222 221 220 219 218 219 220 221 222 223 224 224 224
249 250 251 279 297 293 283 269 257 258 269 273 273 277 268 239 219 220 224 220 222 228 233 237 236 239 248 251 249 256 261 269 275 239 190 195 210 212 212 212 209 209 213 211 202 198 201 200 199 204 206 208 210 210 208 206 204 205 205 203 205 208 210 212 213 215 216 216 217 217 219 220 221 223 223 223 223 222 222 223 223 224 225 226 227 227
234 240 248 288 305 297 252 219 231 241 256 276 281 278 266 235 213 211 221 219 220 226 232 237 240 242 249 253 255 262 263 266 264 212 181 189 204 209 210 207 206 209 209 203 196 195 197 194 193 198 200 203 205 204 203 200 196 199 202 203 205 208 210 211 213 216 216 215 214 214 216 218 220 222 224 225 225 225 226 226 227 227 228 229 229 229
230 237 245 298 315 298 203 217 236 231 236 261 299 279 232 215 208 208 213 215 216 221 228 233 238 243 247 249 253 256 256 260 251 200 182 190 200 205 208 205 203 205 200 193 192 194 194 191 193 195 198 200 201 201 201 198 196 199 202 203 205 208 210 213 215 217 216 215 215 216 218 220 221 223 224 225 227 227 228 229 229 229 229 230 230 230
228 237 251 308 319 272 253 301 254 226 231 253 3 45 147 176 198 202 206 210 211 217 224 229 235 241 244 244 247 251 250 248 236 202 189 195 202 206 213 211 205 200 195 192 193 194 192 192 192 194 196 197 198 198 196 193 195 199 202 205 207 209 212 215 217 218 216 216 218 220 222 224 226 227 227 227 228 229 230 230 230 230 229 230 230 230
226 236 257 308 306 272 314 334 222 203 219 152 70 79 115 135 171 187 190 199 205 211 220 226 231 236 239 239 241 246 243 233 221 203 192 196 203 205 211 213 204 195 191 192 193 192 191 190 190 191 193 193 192 191 188 188 192 196 201 206 209 212 216 218 221 221 219 218 220 222 223 225 227 229 230 230 231 231 232 232 231 231 230 230 230 230
228 239 262 299 293 295 330 0 139 168 158 142 95 83 113 125 147 162 167 184 197 206 213 219 226 230 233 235 236 238 233 221 213 205 199 201 205 204 205 204 197 192 191 191 191 190 188 188 189 190 190 188 188 186 186 190 195 196 199 203 207 214 220 223 226 226 223 221 222 223 224 226 229 230 230 231 232 233 232 232 232 231 231 230 230 230
225 235 265 299 299 304 327 338 200 177 161 153 166 137 122 126 138 140 143 168 184 197 206 209 215 218 218 221 224 223 217 214 215 213 207 205 205 206 208 202 193 190 191 191 190 189 189 191 193 192 188 185 185 185 187 194 199 200 199 198 204 213 220 225 229 229 227 224 224 224 225 227 230 231 232 232 233 234 233 232 232 232 232 231 230 229
217 221 268 304 303 301 317 316 263 194 175 164 160 133 100 111 129 125 109 126 160 179 190 190 191 195 195 200 205 202 202 208 215 214 209 205 204 204 204 202 195 191 189 189 190 192 194 196 198 197 192 187 188 189 192 199 204 205 202 201 206 213 219 224 228 229 228 225 224 225 226 228 230 232 233 233 233 233 234 233 233 233 232 232 231 230
202 198 220 274 271 302 319 322 288 214 213 171 145 115 52 125 126 121 108 103 140 162 170 169 171 174 178 187 191 188 190 200 205 203 201 201 201 198 195 197 197 192 188 189 192 196 197 197 200 201 197 194 196 197 200 205 206 206 205 206 212 218 222 225 227 229 229 226 224 225 227 229 231 232 233 234 234 234 234 234 233 233 233 233 232 232
174 175 187 258 270 285 297 306 288 282 272 199 165 94 192 159 128 121 112 92 116 148 156 158 161 162 166 173 176 178 187 195 191 189 193 197 197 194 192 195 198 195 193 194 195 197 196 196 199 200 197 199 202 204 208 210 209 209 210 212 218 223 227 229 230 232 233 231 229 228 228 228 230 232 233 234 234 235 234 234 234 234 234 234 233 232
158 174 210 246 259 266 269 272 275 312 321 275 276 346 156 153 132 125 115 72 97 137 147 153 157 157 160 165 166 172 186 193 184 179 186 190 189 189 190 195 201 202 202 200 197 194 192 193 196 198 199 204 207 208 211 214 215 217 219 223 227 230 230 231 232 234 235 236 237 237 234 229 226 227 229 230 231 232 233 234 233 234 234 234 234 234
155 172 199 243 259 264 262 258 259 342 346 313 314 88 151 153 125 108 100 78 101 126 136 148 157 157 158 163 163 166 176 180 174 170 175 179 180 182 185 189 196 200 201 201 197 192 189 191 196 201 205 208 209 211 213 216 218 220 223 227 231 232 231 231 233 234 234 235 237 240 243 239 227 222 221 222 225 227 229 230 232 233 234 234 234 234
146 153 135 331 300 278 262 230 200 35 22 353 339 140 156 146 101 86 105 101 109 122 130 143 153 155 157 160 156 154 157 161 160 160 163 168 172 175 178 180 184 186 188 191 191 190 191 195 199 203 206 207 208 211 214 213 212 212 214 220 225 228 229 229 231 234 233 233 235 239 244 243 232 221 216 215 218 221 223 225 227 229 232 233 234 235
109 125 76 36 15 5 50 103 145 75 47 34 2 137 136 121 101 109 114 106 114 128 134 141 146 148 153 154 150 147 148 150 152 153 155 160 164 168 172 175 177 178 179 182 186 189 193 198 200 200 201 203 205 208 208 208 209 209 210 215 219 223 227 228 230 232 233 235 237 239 242 243 237 230 223 216 215 216 219 221 224 226 228 229 232 234
69 83 69 38 29 36 48 62 98 79 55 45 71 115 110 106 120 126 105 102 120 135 137 138 141 144 149 151 148 148 149 149 150 152 155 157 158 160 164 167 170 173 175 179 184 187 190 194 196 195 196 198 200 201 202 205 210 212 214 218 222 228 234 236 238 239 238 239 240 241 244 246 246 244 239 231 224 219 218 219 220 223 226 227 228 231
57 65 59 31 53 67 65 64 84 87 68 54 88 117 109 112 134 131 101 102 122 136 137 135 137 142 147 149 150 150 150 151 152 154 157 158 158 159 161 163 167 169 171 175 179 182 184 187 190 190 191 193 194 196 200 206 212 217 222 225 228 232 237 240 244 245 244 243 242 243 246 247 248 248 246 245 243 234 226 223 221 222 224 227 228 230
61 68 61 62 119 109 88 89 118 129 112 121 152 134 112 105 118 126 109 106 117 130 133 131 132 138 144 148 151 152 151 151 153 155 158 160 160 161 162 164 167 169 171 174 177 179 181 184 187 189 191 193 195 199 205 211 217 223 229 233 235 237 239 241 241 242 243 243 240 240 242 244 245 247 247 247 248 246 241 235 229 225 225 227 230 232
68 68 49 48 143 166 139 133 173 193 177 181 188 169 147 98 81 109 113 109 112 120 125 125 125 128 134 141 147 148 148 151 153 155 158 161 162 163 164 165 168 171 173 176 178 180 183 186 188 191 194 197 201 205 210 216 223 228 232 236 238 240 243 246 244 241 242 243 240 237 237 238 241 245 247 248 250 251 251 249 244 238 233 231 232 234
25 9 354 350 213 200 205 206 208 236 284 276 254 189 205 281 45 102 115 117 116 114 116 121 122 120 122 129 133 134 139 145 150 154 158 162 164 166 167 168 170 172 176 179 181 183 186 189 192 196 200 204 209 214 219 224 228 231 234 236 239 242 246 250 250 244 241 242 243 239 236 236 238 242 247 250 252 254 257 258 258 256 251 242 238 237
339 317 308 301 271 240 241 253 251 255 267 279 293 283 256 274 348 104 116 123 126 118 110 116 122 120 117 120 123 124 127 133 141 149 155 161 165 167 169 171 172 175 178 181 184 187 190 193 197 201 206 213 219 225 230 235 237 239 240 241 243 245 247 249 250 247 241 241 243 243 242 241 242 245 249 255 258 259 260 261 262 263 261 256 250 245
335 318 308 302 288 262 243 252 256 251 250 259 283 291 283 290 301 71 104 106 130 133 118 113 119 121 117 116 119 122 122 122 126 135 144 152 158 161 163 166 171 177 181 184 187 191 194 198 202 206 212 219 227 235 242 245 246 247 248 248 248 248 247 248 249 248 244 242 243 245 245 246 247 249 251 256 260 263 264 264 263 264 265 264 261 256
345 332 320 308 295 279 259 251 251 253 251 244 245 261 275 286 290 285 278 322 131 145 136 119 115 116 119 122 122 119 118 119 119 123 132 140 147 153 156 158 164 172 180 187 191 195 199 204 208 214 222 231 241 248 252 253 250 249 249 250 250 249 248 248 248 248 246 244 244 245 246 246 247 248 251 253 257 261 263 264 264 264 264 265 266 264
Height
3106 3106 3104 3100 3097 3099 3105 3111 3113 3118 3122 3124 3126 3127 3128 3129 3129 3130 3133 3135 3138 3138 3137 3138 3139 3141 3142 3143 3143 3145 3146 3147 3148 3149 3150 3151 3153 3154 3154 3155 3156 3158 3161 3164 3165 3167 3169 3170 3172 3174 3176 3178 3179 3181 3183 3185 3187 3189 3191 3193 3195 3197 3199 3200 3202 3203 3205 3208 3210 3211 3213 3214 3216 3218 3220 3221 3222 3223 3225 3225 3226 3227 3228 3229 3230 3230
3104 3101 3096 3093 3097 3104 3110 3113 3116 3118 3121 3122 3124 3125 3126 3127 3126 3129 3132 3134 3136 3137 3136 3138 3139 3139 3140 3141 3142 3143 3144 3144 3145 3146 3147 3148 3150 3152 3153 3154 3155 3157 3160 3161 3163 3165 3167 3168 3170 3172 3174 3175 3177 3179 3181 3183 3185 3187 3189 3192 3194 3196 3197 3199 3201 3202 3205 3207 3210 3211 3213 3215 3216 3218 3219 3221 3222 3223 3224 3225 3226 3227 3227 3228 3229 3230
3100 3094 3092 3097 3103 3108 3111 3113 3116 3118 3120 3121 3122 3124 3124 3124 3125 3128 3130 3132 3134 3135 3135 3137 3138 3137 3138 3139 3140 3140 3141 3141 3143 3144 3145 3146 3148 3150 3151 3152 3154 3156 3157 3159 3161 3163 3164 3166 3168 3170 3171 3173 3175 3178 3180 3182 3184 3185 3187 3190 3192 3194 3196 3198 3200 3202 3204 3207 3209 3212 3213 3215 3216 3217 3219 3220 3221 3222 3223 3224 3225 3226 3227 3227 3228 3229
3093 3089 3093 3101 3105 3107 3110 3113 3115 3117 3118 3118 3120 3121 3120 3121 3125 3126 3127 3130 3132 3133 3134 3135 3136 3135 3136 3137 3138 3138 3139 3140 3142 3143 3145 3146 3146 3147 3149 3150 3152 3153 3155 3157 3159 3160 3162 3164 3165 3167 3169 3171 3174 3176 3178 3179 3181 3183 3185 3188 3190 3192 3194 3197 3199 3201 3203 3206 3208 3210 3212 3213 3215 3216 3217 3218 3219 3220 3221 3223 3224 3225 3226 3227 3228 3228
3089 3090 3095 3101 3103 3106 3109 3111 3113 3115 3115 3115 3117 3117 3116 3120 3123 3123 3126 3129 3130 3130 3131 3133 3134 3133 3133 3134 3134 3135 3137 3139 3140 3141 3143 3144 3145 3147 3148 3150 3151 3152 3154 3155 3157 3159 3160 3161 3162 3165 3167 3169 3171 3173 3175 3177 3180 3182 3184 3186 3189 3191 3193 3195 3198 3200 3201 3203 3205 3207 3209 3210 3211 3212 3214 3215 3217 3219 3221 3222 3224 3225 3226 3227 3227 3228
3090 3093 3096 3099 3101 3104 3106 3108 3110 3112 3113 3114 3113 3112 3114 3119 3121 3123 3125 3128 3128 3128 3128 3132 3131 3129 3130 3130 3130 3132 3134 3135 3137 3138 3139 3140 3143 3145 3147 3148 3150 3151 3153 3154 3156 3157 3159 3159 3161 3163 3165 3167 3169 3171 3173 3176 3178 3181 3183 3185 3187 3189 3191 3194 3196 3198 3200 3201 3203 3205 3206 3208 3209 3210 3211 3214 3217 3219 3221 3222 3224 3224 3225 3226 3227 3227
3088 3092 3096 3097 3099 3102 3104 3105 3107 3110 3113 3110 3107 3110 3115 3118 3120 3121 3125 3127 3127 3125 3126 3129 3129 3127 3127 3126 3126 3128 3130 3131 3133 3134 3135 3137 3139 3141 3143 3145 3147 3149 3150 3152 3154 3156 3157 3158 3159 3161 3162 3164 3166 3169 3172 3175 3177 3179 3181 3183 3185 3187 3190 3192 3194 3196 3198 3199 3201 3203 3205 3207 3209 3210 3212 3215 3217 3219 3221 3222 3223 3224 3225 3226 3226 3227
3084 3090 3092 3094 3097 3099 3100 3100 3102 3108 3110 3103 3103 3111 3115 3116 3118 3120 3124 3126 3125 3124 3124 3125 3127 3125 3122 3121 3122 3125 3126 3127 3129 3130 3132 3134 3136 3138 3140 3142 3144 3146 3148 3150 3151 3153 3155 3156 3158 3159 3161 3163 3165 3168 3171 3173 3175 3177 3179 3182 3184 3186 3188 3190 3192 3194 3196 3197 3199 3202 3204 3206 3208 3210 3212 3215 3217 3218 3219 3221 3222 3223 3224 3225 3226 3226
3083 3085 3086 3091 3094 3093 3093 3094 3099 3105 3104 3099 3105 3112 3114 3116 3117 3119 3123 3124 3124 3125 3120 3119 3124 3124 3118 3117 3120 3122 3122 3123 3125 3126 3128 3129 3132 3134 3136 3139 3142 3144 3146 3148 3149 3151 3153 3154 3156 3158 3160 3162 3164 3166 3169 3171 3173 3175 3178 3180 3182 3184 3186 3188 3190 3192 3194 3196 3198 3200 3202 3204 3206 3209 3211 3213 3215 3216 3218 3219 3220 3221 3223 3224 3225 3225
3082 3082 3086 3091 3090 3089 3091 3095 3099 3103 3101 3101 3108 3112 3114 3116 3116 3119 3122 3122 3124 3123 3116 3114 3120 3121 3116 3114 3116 3117 3117 3118 3120 3123 3124 3125 3127 3130 3133 3136 3139 3142 3144 3146 3148 3149 3151 3153 3155 3157 3159 3161 3163 3165 3167 3170 3172 3174 3176 3177 3179 3181 3184 3186 3189 3191 3193 3195 3196 3198 3200 3202 3205 3207 3209 3211 3212 3214 3216 3218 3219 3220 3221 3222 3223 3224
3082 3084 3087 3087 3086 3089 3093 3096 3099 3100 3101 3105 3109 3111 3114 3114 3115 3118 3119 3121 3122 3116 3110 3111 3115 3119 3115 3110 3111 3111 3111 3114 3117 3119 3120 3122 3125 3128 3131 3134 3136 3139 3141 3143 3146 3147 3150 3152 3155 3156 3158 3159 3161 3163 3166 3167 3169 3171 3173 3175 3177 3180 3182 3184 3186 3189 3191 3193 3194 3196 3199 3201 3204 3206 3208 3209 3211 3212 3214 3216 3218 3219 3220 3221 3222 3223
3080 3083 3083 3083 3085 3090 3093 3095 3097 3099 3102 3105 3108 3110 3113 3112 3113 3115 3115 3118 3115 3108 3107 3109 3112 3115 3110 3104 3107 3108 3109 3112 3113 3114 3116 3119 3121 3124 3127 3131 3134 3136 3138 3141 3143 3145 3148 3150 3152 3154 3155 3157 3159 3161 3163 3165 3167 3169 3171 3173 3176 3177 3179 3182 3184 3187 3189 3191 3193 3195 3197 3199 3202 3204 3206 3208 3210 3211 3213 3215 3217 3218 3219 3220 3221 3222
3075 3077 3079 3082 3084 3087 3090 3092 3094 3097 3099 3102 3105 3108 3110 3110 3111 3110 3110 3109 3107 3105 3106 3107 3110 3108 3101 3099 3104 3106 3108 3110 3110 3111 3114 3115 3117 3120 3123 3127 3131 3133 3135 3138 3141 3143 3145 3147 3149 3150 3152 3154 3156 3157 3160 3162 3164 3166 3168 3171 3173 3175 3177 3179 3182 3184 3187 3189 3191 3193 3196 3198 3200 3202 3204 3207 3209 3210 3212 3214 3216 3217 3218 3219 3220 3222
3070 3073 3076 3079 3080 3082 3084 3085 3088 3091 3094 3097 3100 3102 3104 3105 3107 3106 3105 3104 3103 3104 3104 3106 3107 3100 3093 3095 3099 3102 3104 3106 3107 3109 3111 3113 3115 3117 3120 3124 3128 3130 3132 3135 3139 3141 3143 3144 3146 3148 3150 3151 3153 3155 3158 3160 3162 3164 3166 3168 3171 3173 3176 3178 3179 3182 3184 3187 3190 3192 3194 3197 3199 3201 3203 3205 3207 3209 3211 3213 3215 3216 3218 3219 3220 3221
3066 3066 3067 3071 3073 3076 3079 3080 3083 3087 3091 3092 3094 3099 3098 3096 3098 3100 3101 3101 3101 3103 3103 3103 3100 3091 3088 3090 3093 3098 3102 3103 3105 3106 3109 3112 3113 3116 3118 3121 3124 3127 3130 3133 3136 3139 3141 3142 3144 3146 3148 3150 3151 3153 3156 3158 3160 3161 3164 3166 3168 3171 3173 3175 3177 3179 3182 3185 3188 3190 3192 3195 3197 3199 3201 3203 3206 3208 3209 3211 3213 3215 3216 3218 3219 3220
3061 3059 3062 3067 3070 3073 3075 3076 3081 3085 3087 3088 3091 3095 3091 3088 3092 3097 3098 3098 3099 3100 3098 3094 3089 3085 3086 3088 3092 3097 3099 3100 3102 3103 3106 3109 3111 3114 3116 3118 3121 3124 3127 3130 3133 3136 3139 3141 3142 3144 3146 3148 3150 3152 3153 3155 3157 3159 3161 3164 3167 3169 3172 3174 3176 3178 3180 3183 3186 3188 3190 3193 3195 3197 3199 3201 3203 3206 3208 3209 3211 3213 3215 3216 3218 3218
3060 3055 3058 3064 3066 3069 3072 3073 3077 3080 3080 3083 3086 3084 3082 3087 3095 3098 3097 3096 3097 3096 3091 3086 3083 3084 3087 3087 3089 3094 3095 3097 3099 3100 3103 3106 3109 3111 3112 3114 3117 3120 3124 3127 3130 3134 3136 3138 3140 3142 3144 3146 3148 3150 3151 3153 3155 3157 3159 3162 3165 3167 3170 3172 3174 3177 3179 3181 3184 3186 3188 3191 3193 3195 3197 3199 3202 3204 3206 3208 3209 3211 3213 3214 3216 3217
3062 3053 3052 3058 3061 3064 3070 3073 3075 3076 3077 3080 3079 3078 3083 3092 3096 3095 3095 3094 3094 3091 3086 3082 3082 3083 3084 3083 3085 3089 3091 3093 3096 3098 3101 3104 3106 3108 3109 3112 3114 3117 3121 3124 3128 3131 3133 3136 3137 3139 3142 3144 3146 3147 3149 3151 3154 3156 3158 3160 3163 3165 3167 3170 3172 3175 3178 3179 3182 3184 3186 3188 3191 3193 3196 3198 3200 3202 3204 3206 3207 3209 3211 3212 3214 3215
3063 3054 3050 3055 3058 3060 3065 3070 3072 3074 3076 3077 3076 3078 3084 3088 3086 3088 3090 3088 3089 3089 3084 3081 3080 3079 3078 3078 3081 3085 3088 3091 3093 3096 3099 3101 3103 3104 3107 3110 3112 3114 3117 3121 3124 3127 3129 3133 3135 3137 3140 3142 3144 3146 3148 3150 3152 3155 3157 3159 3162 3164 3166 3169 3171 3174 3176 3177 3180 3182 3184 3187 3189 3191 3194 3196 3198 3200 3202 3204 3206 3207 3209 3211 3212 3213
3063 3059 3052 3050 3054 3057 3059 3062 3065 3067 3071 3074 3076 3079 3081 3081 3079 3081 3083 3082 3085 3086 3083 3082 3079 3074 3074 3076 3079 3082 3085 3089 3091 3093 3096 3098 3100 3101 3104 3107 3109 3111 3114 3117 3120 3123 3126 3129 3132 3135 3137 3139 3141 3143 3146 3148 3150 3153 3155 3157 3160 3162 3165 3167 3169 3171 3173 3175 3178 3180 3182 3184 3187 3189 3192 3194 3196 3198 3200 3202 3204 3206 3207 3209 3210 3212
3062 3062 3055 3048 3050 3053 3053 3056 3059 3062 3066 3068 3070 3072 3074 3075 3076 3079 3080 3080 3082 3082 3082 3082 3076 3070 3072 3076 3078 3080 3083 3087 3089 3091 3094 3096 3098 3099 3102 3104 3107 3109 3111 3113 3117 3120 3122 3125 3129 3132 3135 3138 3140 3142 3144 3146 3148 3151 3153 3155 3158 3160 3162 3164 3167 3169 3171 3173 3176 3178 3180 3182 3184 3187 3189 3191 3193 3196 3198 3200 3202 3204 3205 3207 3208 3210
3060 3060 3056 3049 3047 3047 3049 3053 3057 3059 3063 3064 3065 3067 3068 3070 3073 3077 3077 3076 3078 3078 3078 3078 3072 3067 3071 3075 3076 3079 3082 3084 3087 3089 3091 3094 3096 3097 3099 3102 3105 3107 3109 3111 3113 3117 3119 3122 3126 3130 3133 3136 3137 3139 3141 3143 3145 3148 3150 3153 3156 3158 3160 3162 3165 3167 3170 3172 3174 3176 3178 3181 3183 3185 3187 3189 3191 3193 3196 3198 3200 3202 3203 3204 3206 3207
3060 3059 3056 3049 3045 3044 3046 3049 3053 3055 3058 3060 3062 3064 3067 3069 3070 3071 3070 3070 3074 3075 3075 3076 3070 3063 3067 3073 3074 3077 3080 3082 3085 3087 3089 3091 3093 3095 3096 3099 3102 3105 3107 3109 3111 3114 3116 3118 3122 3127 3131 3133 3135 3137 3139 3141 3143 3145 3148 3151 3153 3156 3158 3161 3163 3166 3168 3170 3172 3174 3177 3179 3181 3183 3184 3186 3188 3191 3193 3196 3198 3199 3201 3203 3204 3206
3059 3058 3056 3049 3044 3043 3045 3047 3050 3054 3057 3057 3058 3061 3064 3065 3065 3066 3067 3068 3071 3072 3072 3075 3069 3059 3062 3070 3072 3074 3077 3078 3081 3083 3085 3088 3090 3092 3094 3096 3099 3103 3105 3108 3109 3111 3113 3115 3119 3124 3128 3130 3133 3135 3136 3139 3141 3143 3146 3148 3151 3153 3156 3159 3162 3164 3166 3168 3170 3173 3175 3176 3178 3180 3181 3184 3186 3189 3191 3194 3196 3197 3199 3201 3202 3204
3058 3058 3057 3053 3049 3046 3045 3047 3049 3051 3052 3053 3055 3058 3060 3062 3065 3065 3066 3068 3068 3066 3068 3073 3067 3056 3058 3067 3069 3071 3073 3074 3076 3079 3081 3082 3084 3088 3090 3092 3095 3100 3103 3105 3107 3108 3110 3112 3115 3120 3124 3128 3130 3132 3134 3136 3139 3141 3144 3146 3148 3151 3154 3157 3160 3162 3164 3166 3169 3170 3172 3174 3176 3177 3179 3182 3184 3186 3189 3191 3194 3196 3198 3199 3201 3203
3057 3057 3057 3057 3056 3049 3043 3044 3046 3047 3048 3049 3051 3053 3055 3059 3062 3063 3064 3065 3062 3062 3065 3066 3061 3056 3058 3063 3066 3068 3070 3070 3072 3074 3075 3076 3078 3082 3085 3087 3091 3096 3099 3102 3104 3105 3107 3109 3112 3116 3121 3125 3128 3130 3132 3134 3136 3139 3142 3144 3147 3150 3152 3155 3157 3160 3162 3164 3166 3168 3170 3172 3174 3175 3178 3180 3182 3185 3187 3189 3191 3193 3195 3197 3199 3201
3054 3055 3055 3056 3054 3049 3043 3043 3045 3046 3045 3045 3046 3048 3050 3053 3056 3059 3060 3058 3058 3061 3061 3059 3059 3060 3059 3060 3062 3064 3066 3067 3067 3069 3070 3071 3073 3076 3079 3083 3087 3092 3096 3099 3101 3103 3105 3107 3110 3114 3118 3123 3125 3128 3130 3132 3135 3137 3140 3143 3145 3148 3151 3153 3156 3158 3160 3162 3164 3166 3168 3170 3172 3174 3176 3178 3180 3183 3185 3187 3189 3191 3193 3195 3197 3199
3052 3051 3052 3052 3050 3047 3045 3043 3044 3045 3044 3043 3043 3045 3046 3048 3051 3053 3053 3052 3056 3059 3056 3056 3062 3062 3058 3057 3059 3060 3063 3064 3064 3065 3067 3069 3070 3072 3076 3080 3084 3089 3092 3095 3098 3100 3103 3106 3108 3112 3116 3120 3123 3126 3128 3130 3133 3136 3138 3141 3144 3147 3149 3151 3154 3156 3158 3160 3162 3164 3166 3168 3171 3173 3175 3177 3178 3180 3182 3184 3186 3188 3191 3192 3194 3196
3049 3048 3049 3049 3046 3044 3044 3042 3042 3044 3043 3042 3042 3042 3043 3045 3047 3048 3048 3051 3055 3055 3053 3057 3062 3060 3056 3055 3056 3057 3060 3063 3062 3063 3066 3068 3069 3071 3074 3077 3081 3085 3088 3092 3095 3098 3101 3104 3107 3110 3114 3117 3121 3123 3126 3129 3131 3134 3137 3140 3142 3145 3147 3150 3152 3154 3156 3158 3159 3162 3165 3167 3169 3171 3173 3175 3176 3178 3180 3181 3183 3186 3188 3189 3191 3194
3047 3046 3046 3046 3043 3040 3041 3041 3042 3042 3041 3040 3040 3040 3039 3040 3041 3044 3047 3050 3052 3052 3054 3058 3059 3057 3055 3055 3055 3057 3060 3060 3060 3061 3063 3066 3068 3070 3072 3075 3078 3082 3085 3089 3093 3097 3100 3103 3106 3109 3112 3115 3118 3121 3124 3127 3130 3132 3135 3138 3140 3143 3145 3148 3150 3152 3154 3156 3158 3161 3163 3165 3167 3169 3171 3173 3174 3176 3178 3179 3181 3183 3184 3186 3189 3191
3044 3043 3044 3044 3040 3037 3038 3039 3039 3039 3039 3039 3039 3037 3035 3035 3038 3042 3046 3049 3050 3052 3054 3056 3056 3054 3054 3055 3056 3057 3058 3058 3058 3059 3061 3065 3067 3069 3071 3073 3076 3079 3083 3087 3091 3095 3098 3101 3104 3107 3110 3113 3116 3119 3123 3126 3128 3131 3133 3136 3138 3141 3144 3146 3148 3150 3152 3155 3157 3160 3161 3163 3165 3167 3169 3171 3173 3174 3176 3177 3179 3180 3182 3184 3186 3188
3041 3041 3042 3042 3038 3035 3035 3036 3035 3036 3038 3038 3036 3033 3032 3033 3036 3040 3043 3045 3046 3049 3052 3053 3052 3051 3053 3055 3056 3055 3056 3056 3057 3058 3061 3064 3067 3068 3070 3072 3075 3078 3082 3086 3090 3093 3097 3100 3102 3105 3108 3111 3115 3118 3122 3124 3127 3129 3132 3134 3137 3140 3142 3144 3146 3148 3151 3154 3156 3158 3160 3161 3163 3165 3167 3169 3171 3172 3174 3175 3176 3177 3179 3181 3183 3185
3039 3040 3041 3041 3037 3033 3033 3033 3033 3035 3037 3036 3034 3031 3029 3030 3034 3037 3040 3041 3043 3046 3048 3049 3049 3050 3052 3054 3054 3054 3055 3055 3056 3058 3060 3063 3066 3068 3070 3072 3074 3077 3081 3085 3088 3092 3095 3098 3101 3104 3107 3110 3114 3117 3120 3124 3126 3128 3131 3133 3136 3138 3141 3143 3145 3147 3150 3153 3154 3156 3158 3160 3161 3163 3165 3167 3169 3170 3172 3173 3174 3175 3176 3178 3180 3182
3037 3038 3039 3039 3036 3032 3031 3031 3031 3034 3035 3034 3033 3031 3027 3028 3031 3034 3036 3038 3039 3042 3045 3046 3047 3048 3049 3050 3051 3052 3053 3055 3056 3057 3059 3062 3065 3067 3069 3071 3074 3077 3081 3084 3087 3091 3094 3097 3100 3103 3106 3110 3114 3117 3120 3123 3125 3128 3130 3132 3135 3137 3139 3141 3143 3145 3149 3151 3152 3154 3156 3158 3159 3161 3163 3165 3166 3168 3169 3170 3171 3173 3174 3176 3177 3179
3035 3036 3037 3037 3035 3032 3030 3030 3030 3032 3033 3032 3033 3031 3026 3025 3028 3031 3033 3034 3036 3039 3042 3044 3045 3045 3046 3048 3049 3050 3052 3054 3055 3056 3058 3061 3063 3065 3068 3070 3073 3076 3079 3082 3086 3089 3092 3095 3098 3102 3106 3109 3113 3116 3119 3122 3124 3127 3129 3131 3133 3135 3137 3139 3141 3143 3146 3149 3150 3152 3154 3155 3157 3159 3160 3162 3164 3165 3166 3168 3169 3171 3172 3173 3175 3176
3033 3035 3035 3034 3034 3033 3032 3030 3029 3029 3029 3030 3031 3030 3027 3025 3025 3028 3031 3032 3034 3036 3039 3041 3043 3043 3044 3046 3047 3049 3050 3052 3054 3056 3057 3059 3062 3064 3066 3069 3071 3074 3077 3080 3084 3087 3090 3094 3098 3101 3105 3108 3112 3115 3118 3121 3123 3126 3128 3130 3132 3133 3135 3137 3138 3140 3143 3146 3148 3149 3151 3153 3154 3156 3158 3160 3161 3162 3164 3166 3167 3169 3170 3171 3173 3174
3031 3033 3033 3033 3033 3034 3032 3029 3026 3026 3027 3029 3029 3029 3028 3026 3025 3026 3031 3033 3033 3034 3036 3038 3040 3040 3041 3044 3046 3047 3049 3051 3053 3054 3055 3057 3060 3062 3064 3067 3070 3073 3076 3079 3082 3085 3089 3093 3097 3101 3104 3108 3111 3114 3117 3120 3122 3124 3126 3128 3130 3132 3133 3135 3136 3138 3141 3143 3145 3147 3149 3150 3152 3154 3156 3157 3159 3160 3162 3164 3165 3166 3168 3169 3170 3172
3029 3031 3032 3032 3033 3033 3032 3029 3026 3025 3026 3026 3026 3027 3027 3026 3025 3025 3030 3033 3032 3031 3033 3036 3037 3038 3040 3042 3044 3046 3048 3050 3051 3052 3054 3056 3058 3060 3063 3065 3068 3071 3074 3077 3080 3084 3088 3092 3096 3100 3103 3106 3109 3112 3115 3118 3120 3122 3124 3126 3128 3129 3131 3133 3134 3136 3138 3141 3143 3145 3147 3148 3150 3151 3153 3154 3156 3157 3159 3161 3163 3164 3165 3166 3168 3170
3028 3030 3031 3032 3032 3032 3032 3030 3027 3026 3025 3023 3023 3024 3024 3025 3024 3024 3028 3033 3033 3032 3032 3034 3036 3037 3039 3041 3043 3045 3047 3048 3049 3050 3052 3054 3057 3059 3062 3064 3067 3070 3073 3076 3080 3083 3087 3091 3095 3098 3101 3104 3108 3111 3113 3115 3118 3120 3122 3124 3126 3127 3129 3131 3132 3134 3135 3138 3140 3142 3144 3146 3148 3149 3150 3151 3153 3155 3157 3158 3160 3162 3163 3164 3166 3168
3027 3028 3030 3030 3030 3030 3030 3029 3028 3026 3024 3022 3021 3022 3023 3024 3024 3024 3029 3034 3035 3033 3032 3034 3035 3037 3038 3040 3042 3043 3045 3046 3048 3050 3052 3054 3056 3059 3061 3063 3066 3069 3072 3076 3079 3082 3086 3090 3093 3096 3100 3103 3106 3109 3111 3114 3116 3118 3120 3122 3124 3125 3127 3128 3130 3132 3133 3135 3137 3139 3141 3143 3145 3147 3148 3149 3150 3152 3153 3155 3157 3159 3160 3162 3164 3165
3026 3027 3028 3028 3028 3028 3028 3028 3027 3025 3023 3022 3021 3021 3023 3024 3024 3026 3030 3035 3034 3033 3033 3034 3035 3036 3038 3040 3041 3042 3043 3045 3046 3048 3051 3053 3055 3058 3060 3063 3066 3068 3071 3075 3078 3082 3085 3089 3092 3095 3098 3101 3104 3107 3109 3112 3114 3116 3118 3120 3121 3123 3124 3126 3128 3130 3131 3132 3134 3135 3137 3140 3142 3143 3145 3146 3148 3149 3150 3152 3153 3155 3157 3159 3161 3162
3025 3026 3027 3027 3027 3026 3025 3026 3026 3025 3024 3023 3022 3021 3021 3023 3026 3029 3032 3033 3033 3032 3032 3033 3034 3035 3038 3040 3042 3041 3042 3044 3046 3048 3051 3053 3055 3058 3060 3063 3065 3068 3071 3074 3077 3081 3085 3088 3092 3095 3097 3100 3103 3105 3108 3110 3112 3114 3116 3117 3119 3120 3122 3124 3126 3128 3129 3130 3132 3133 3135 3136 3138 3140 3141 3143 3145 3146 3147 3149 3150 3151 3153 3155 3157 3158
3023 3024 3025 3025 3024 3024 3023 3024 3025 3026 3025 3023 3022 3020 3020 3022 3027 3031 3031 3031 3031 3031 3031 3032 3033 3035 3037 3039 3041 3041 3042 3044 3047 3049 3051 3053 3056 3058 3060 3063 3066 3068 3071 3074 3077 3081 3085 3088 3091 3094 3097 3099 3102 3104 3106 3108 3110 3112 3114 3115 3117 3118 3120 3122 3123 3125 3127 3128 3130 3131 3133 3134 3135 3136 3138 3140 3141 3143 3144 3146 3147 3148 3149 3151 3152 3154
3021 3022 3023 3023 3023 3023 3023 3024 3025 3026 3025 3024 3023 3022 3022 3023 3026 3028 3027 3028 3029 3029 3030 3031 3033 3035 3036 3038 3040 3042 3043 3045 3047 3050 3052 3054 3056 3058 3061 3063 3066 3068 3071 3074 3077 3080 3084 3087 3090 3092 3095 3098 3100 3103 3105 3107 3108 3110 3112 3114 3115 3116 3118 3119 3121 3123 3124 3126 3127 3129 3130 3132 3133 3134 3135 3136 3138 3139 3141 3142 3144 3145 3146 3147 3149 3150
3021 3021 3022 3023 3024 3024 3024 3025 3025 3025 3025 3025 3025 3025 3023 3023 3024 3025 3025 3025 3025 3026 3028 3030 3032 3034 3036 3038 3039 3041 3043 3046 3048 3050 3052 3054 3055 3058 3061 3063 3066 3068 3070 3073 3076 3079 3082 3085 3088 3091 3093 3096 3099 3101 3103 3105 3107 3108 3110 3112 3113 3114 3116 3117 3119 3121 3122 3124 3125 3127 3128 3129 3131 3132 3133 3134 3135 3136 3138 3139 3140 3142 3143 3144 3145 3146
3022 3021 3022 3024 3025 3025 3025 3025 3025 3025 3025 3025 3025 3025 3024 3024 3025 3025 3023 3022 3022 3024 3026 3027 3030 3033 3035 3037 3039 3040 3043 3046 3050 3051 3052 3054 3056 3058 3061 3063 3066 3068 3070 3073 3076 3078 3081 3084 3087 3090 3092 3095 3097 3099 3101 3103 3105 3106 3108 3109 3111 3112 3114 3115 3117 3119 3120 3122 3123 3125 3126 3127 3129 3130 3131 3132 3132 3134 3135 3136 3138 3139 3140 3141 3143 3143
3023 3022 3024 3025 3026 3026 3026 3025 3025 3024 3024 3024 3024 3024 3025 3026 3026 3025 3022 3021 3022 3023 3024 3026 3028 3031 3034 3036 3038 3039 3042 3046 3049 3051 3053 3054 3056 3058 3061 3063 3066 3068 3071 3073 3075 3078 3081 3083 3086 3088 3091 3093 3095 3097 3099 3101 3102 3104 3106 3107 3109 3110 3112 3113 3115 3116 3118 3119 3121 3122 3123 3125 3126 3127 3128 3129 3130 3131 3132 3134 3135 3136 3137 3139 3140 3140
3025 3025 3026 3027 3026 3025 3025 3025 3024 3023 3023 3023 3023 3023 3024 3026 3026 3024 3022 3022 3023 3024 3025 3026 3027 3029 3032 3033 3035 3038 3041 3044 3046 3049 3051 3053 3055 3058 3060 3062 3065 3067 3070 3072 3074 3077 3079 3082 3084 3086 3089 3091 3093 3095 3097 3099 3101 3102 3104 3105 3107 3108 3110 3111 3112 3114 3115 3117 3118 3119 3121 3122 3123 3124 3125 3126 3128 3129 3130 3131 3133 3134 3135 3136 3137 3137
3027 3026 3027 3026 3025 3025 3024 3024 3024 3023 3022 3022 3022 3022 3023 3024 3024 3023 3023 3023 3024 3025 3027 3028 3028 3029 3031 3032 3034 3037 3041 3043 3045 3047 3048 3051 3053 3056 3059 3061 3063 3066 3068 3071 3073 3076 3078 3080 3083 3085 3087 3089 3091 3093 3095 3097 3098 3100 3102 3103 3105 3106 3107 3108 3109 3110 3112 3113 3115 3116 3117 3119 3120 3121 3122 3124 3125 3126 3128 3129 3130 3131 3132 3133 3134 3135
3027 3026 3026 3025 3024 3023 3024 3023 3022 3022 3021 3021 3022 3022 3022 3023 3023 3023 3023 3024 3026 3027 3028 3029 3029 3030 3032 3034 3036 3038 3040 3043 3045 3046 3047 3049 3052 3054 3056 3059 3062 3064 3067 3069 3071 3074 3076 3078 3081 3083 3085 3087 3089 3091 3093 3094 3095 3097 3098 3100 3101 3103 3104 3105 3106 3107 3109 3110 3111 3113 3114 3115 3117 3118 3120 3121 3122 3123 3124 3126 3127 3128 3128 3129 3130 3131
3026 3025 3025 3023 3022 3022 3023 3023 3021 3020 3019 3020 3022 3022 3022 3023 3024 3025 3025 3026 3027 3029 3029 3030 3031 3031 3032 3034 3037 3039 3041 3043 3045 3047 3048 3050 3051 3053 3055 3057 3060 3062 3065 3067 3069 3072 3074 3077 3079 3081 3083 3085 3087 3088 3089 3090 3092 3093 3094 3096 3098 3099 3101 3102 3103 3104 3106 3107 3108 3109 3111 3112 3114 3115 3117 3118 3119 3120 3121 3122 3123 3124 3125 3125 3126 3126